Ireland West Airport Knock, Ireland

7:28 AM IST on August 21, 2017 (GMT +0100)
Connaught

Weather History for EIKN - May, 2013

Change the Weather History Date:

Wednesday, May 1, 2013

  Actual Average Record
Temperature  
Mean Temperature 46 °F -  
Max Temperature 53 °F - - ()
Min Temperature 40 °F - - ()
Degree Days  
Heating Degree Days 18    
Moisture  
Dew Point 38 °F    
Average Humidity 67    
Maximum Humidity 100    
Minimum Humidity 46    
Precipitation  
Precipitation 0.00 in - - ()
Sea Level Pressure  
Sea Level Pressure 30.26 in    
Wind  
Wind Speed 10 mph ()    
Max Wind Speed 18 mph    
Max Gust Speed -    
Visibility 6.4 miles    
Events Rain    
T = Trace of Precipitation, MM = Missing Value Source: Averaged Metar Reports

Daily Weather History Graph

Daily Weather History Graph

Search for Another Location

Airport or City:

Trip Planner

Search our weather history database for the weather conditions in past years. The results will help you decide how hot, cold, wet, or windy it might be!

Date:

Astronomy

May. 01, 2013 Rise Set
Actual Time 5:59 AM IST 9:06 PM IST
Civil Twilight 5:17 AM IST 9:48 PM IST
Nautical Twilight 4:22 AM IST 10:43 PM IST
Astronomical Twilight 3:08 AM IST 12:00 AM IST
Moon 2:10 AM IST (5/1) 11:19 AM IST (5/1)
Length of Visible Light 16h 30m
Length of Day
15h 07m
Waning Gibbous, 61% of the Moon is Illuminated
May 1
Waning Gibbous
May 2
Last Quarter
May 10
New
May 18
First Quarter
May 25
Full

Hourly Weather History & Observations

Time (IST) Temp. Windchill Dew Point Humidity Pressure Visibility Wind Dir Wind Speed Gust Speed Precip Events Conditions
1:00 AM 42 °F - 40 °F 91% 30.28 in - SSW 6.7 mph - -  
7:00 AM 45 °F - 44 °F 97% 30.25 in 12 mi West 11.2 mph - - Rain Light Rain
7:00 AM 44.6 °F 39.2 °F 44.6 °F 100% 30.21 in 6.2 mi West 10.4 mph - N/A   Mostly Cloudy
7:30 AM 44.6 °F 38.8 °F 44.6 °F 100% 30.21 in 6.2 mi West 11.5 mph - N/A   Mostly Cloudy
8:00 AM 44.6 °F 39.7 °F 42.8 °F 93% 30.24 in 6.2 mi WNW 9.2 mph - N/A   Mostly Cloudy
8:30 AM 46.4 °F 41.9 °F 41.0 °F 81% 30.24 in 6.2 mi WNW 9.2 mph - N/A   Partly Cloudy
9:00 AM 46.4 °F 40.1 °F 39.2 °F 76% 30.24 in 6.2 mi WNW 15.0 mph - N/A   Partly Cloudy
9:30 AM 48.2 °F - 39.2 °F 71% 30.24 in 6.2 mi WNW 17.3 mph - N/A   Partly Cloudy
10:00 AM 48.2 °F - 39.2 °F 71% 30.24 in 6.2 mi WNW 18.4 mph - N/A   Mostly Cloudy
10:30 AM 48.2 °F - 39.2 °F 71% 30.27 in 6.2 mi WNW 13.8 mph - N/A   Mostly Cloudy
11:00 AM 48.2 °F - 39.2 °F 71% 30.27 in 6.2 mi NW 15.0 mph - N/A   Partly Cloudy
11:30 AM 50.0 °F - 37.4 °F 62% 30.27 in 6.2 mi NW 13.8 mph - N/A   Partly Cloudy
12:00 PM 48.2 °F - 39.2 °F 71% 30.27 in 6.2 mi NNW 16.1 mph - N/A   Partly Cloudy
12:30 PM 51.8 °F - 37.4 °F 58% 30.27 in 6.2 mi NNW 11.5 mph - N/A   Scattered Clouds
1:00 PM 51 °F - 36 °F 46% 30.29 in 34 mi NW 8.9 mph - -   Mostly Cloudy
1:00 PM 51.8 °F - 37.4 °F 58% 30.27 in 6.2 mi NW 9.2 mph - N/A   Scattered Clouds
1:30 PM 51.8 °F - 37.4 °F 58% 30.27 in 6.2 mi NW 9.2 mph - N/A   Scattered Clouds
2:00 PM 51.8 °F - 37.4 °F 58% 30.27 in 6.2 mi NNW 9.2 mph - N/A   Scattered Clouds
2:30 PM 51.8 °F - 35.6 °F 54% 30.27 in 6.2 mi NW 10.4 mph - N/A   Scattered Clouds
3:00 PM 51.8 °F - 35.6 °F 54% 30.27 in 6.2 mi NNW 10.4 mph - N/A   Scattered Clouds
3:30 PM 53.6 °F - 37.4 °F 54% 30.27 in 6.2 mi NW 11.5 mph - N/A   Scattered Clouds
4:00 PM 53.6 °F - 35.6 °F 51% 30.27 in 6.2 mi NW 10.4 mph - N/A   Scattered Clouds
4:30 PM 51.8 °F - 37.4 °F 58% 30.27 in 6.2 mi NNW 11.5 mph - N/A   Partly Cloudy
5:00 PM 53.6 °F - 35.6 °F 51% 30.27 in 6.2 mi NNW 9.2 mph - N/A   Partly Cloudy
5:30 PM 51.8 °F - 35.6 °F 54% 30.27 in 6.2 mi NNW 10.4 mph - N/A   Partly Cloudy
6:00 PM 51.8 °F - 35.6 °F 54% 30.27 in 6.2 mi NNW 8.1 mph - N/A   Scattered Clouds
7:00 PM 49 °F - 36 °F 50% 30.30 in 40 mi North 8.9 mph - -   Scattered Clouds
7:00 PM 48.2 °F - 35.6 °F 62% 30.27 in 6.2 mi North 9.2 mph - N/A   Mostly Cloudy